Home   Weather   Gröbming   Past weeks

Flag for Austria Past Weather in Gröbming, Styria, Austria — Yesterday and Last 2 Weeks

Now
47 °F

Overcast.


Feels Like: 47 °F
Forecast: 28 / 57 °F
Wind: 2 mph from Northeast

Location: Aigen Im Ennstal

Current Time: Apr 29, 2017 at 5:51:24 pm

Latest Report: Apr 29, 2017 at 5:00 pm


Visibility: 16 mi

Pressure: 30.08 "Hg (27.40 "Hg at 769m altitude)

Humidity: 53%

Dew Point: 31 °F

Location of GröbmingLocation

Past Weather in Gröbming — Graph

°F

Gröbming Temperature Yesterday

Maximum temperature yesterday: 40 °F (at 5:00 pm)
Minimum temperature yesterday: 32 °F (at 8:00 am)
Average temperature yesterday: 36 °F

High & Low Weather Summary for the Past Weeks

 TemperatureHumidityPressure
High67 °F (Apr 25, 5:00 pm)100% (Apr 28, 8:00 am)30.60 "Hg (Apr 28, 8:00 am)
Low29 °F (Apr 21, 3:00 am)25% (Apr 24, 5:00 pm)29.61 "Hg (Apr 25, 5:00 pm)
Average42 °F70%30.09 "Hg
* Reported Apr 14 4:00 pm — Apr 29 4:00 pm, Gröbming, Weather by CustomWeather, © 2017

Note: Actual official high and low records may vary slightly from our data, if they occured in-between our weather recording intervals... More about our weather records

Advertising

Gröbming Weather History for the Previous 24 Hours

Scroll right to see more
 ConditionsComfort  
Time TempWeatherWind HumidityBarometerVisibility
4:00 pm
Sat, Apr 29
49 °FCool.5 mph48%30.08 "HgN/A
3:00 pm48 °FCool.2 mph46%30.09 "HgN/A
2:00 pm49 °FOvercast.3 mph51%30.08 "Hg16 mi
1:00 pm46 °FCool.3 mph51%30.11 "HgN/A
12:00 pm45 °FQuite cool.5 mph59%30.13 "HgN/A
11:00 am42 °FOvercast.5 mph72%30.15 "Hg11 mi
10:00 am41 °FQuite cool.6 mph72%30.15 "HgN/A
9:00 am39 °FChilly.No wind80%30.16 "HgN/A
8:00 am37 °FLow clouds.N/A87%30.16 "Hg7 mi
7:00 am37 °FSprinkles. Low clouds.No wind88%30.14 "Hg6 mi
6:00 am36 °FChilly.1 mph87%30.14 "HgN/A
5:00 am37 °FSprinkles. Overcast.N/A84%30.12 "Hg7 mi
4:00 am37 °FSprinkles. Overcast.1 mph86%30.12 "HgN/A
3:00 am37 °FChilly.1 mph84%30.11 "HgN/A
2:00 am37 °FSprinkles. Overcast.N/A85%30.09 "Hg7 mi
1:00 am37 °FChilly.1 mph84%30.10 "HgN/A
12:00 am38 °FFog.2 mph81%30.09 "HgN/A
11:00 pm
Fri, Apr 28
38 °FOvercast.N/A80%30.06 "Hg9 mi
10:00 pm38 °FChilly.3 mph77%30.05 "HgN/A
9:00 pm39 °FChilly.5 mph73%30.01 "HgN/A
8:00 pm40 °FOvercast.5 mph73%29.96 "Hg12 mi
7:00 pm40 °FChilly.6 mph74%29.95 "HgN/A
6:00 pm40 °FChilly.7 mph73%29.93 "HgN/A
5:00 pm40 °FOvercast.5 mph77%29.89 "Hg9 mi
Weather by CustomWeather, © 2017

See weather overviewHow to use our weather pages